Regional Weather Roundup
Issued by NWS Goodland, KS

Home | Current Version | Previous Version | Graphics & Text | Print | Product List | Glossary On
Versions: 1 2 3 4 5 6 7 8 9 10 11 12 13 14 15 16 17 18 19 20 21 22 23 24 25 26 27 28 29 30 31 32 33 34 35 36 37 38 39 40 41 42 43 44 45 46 47 48 49 50
000
ASUS43 KGLD 222159
RWRGLD

GOODLAND FORECAST AREA HOURLY WEATHER ROUNDUP
NATIONAL WEATHER SERVICE GOODLAND KS
400 PM MDT TUE APR 22 2014

...OFFICIAL OBSERVATIONS...

CITY           SKY/WX    TMP DP  RH WIND       PRES   REMARKS
GOODLAND KS    MOSUNNY   80  46  30 S30G40    29.78F
HILL CITY KS   SUNNY     78  39  24 S24G35    29.89F
IMPERIAL NEB   SUNNY     81  41  24 S24G32    29.76F
MCCOOK NEB     SUNNY     77  37  23 S25G37    29.84F
AKRON CO       MOSUNNY   80  29  15 S14G26    29.76F
BURLINGTON CO  MOSUNNY   84  30  14 SW18G26   29.79F
LIMON CO       MOSUNNY   78  29  16 SW17G24   29.80F
$$

...UNOFFICIAL OBSERVATIONS...

CITY           SKY/WX    TMP DP  RH WIND       PRES   REMARKS
COLBY KS       SUNNY     79  46  31 SE25G38   29.84F
LENORA KS        N/A     76  32  20 S23         N/A
LEOTI KS         N/A     80  32  17 S14         N/A
NORTON KS      SUNNY     73  37  27 S26G33    29.88F
SHARON SPRINGS   N/A     81  48  31 S24G38      N/A
WAKEENEY KS      N/A     76  35  22 MISG        N/A
KIT CARSON CO    N/A     82  34  18 MISG        N/A
$$



USA.gov is the U.S. government's official web portal to all federal, state and local government web resources and services.